Time,TemperatureF,DewpointF,PressureIn,WindDirection,WindDirectionDegrees,WindSpeedMPH,WindSpeedGustMPH,Humidity,HourlyPrecipIn,Conditions,Clouds,dailyrainin,SolarRadiationWatts/m^2,SoftwareType,DateUTC
2013-01-27 02:00:00,44.0,43.0,-100.00,South,171,15.0,-999.0,99,-99.99,,,-99.99,0.000000,,2013-01-27 08:00:00,
2013-01-27 02:52:00,44.0,43.0,-100.00,South,171,15.0,-999.0,99,-99.99,,,-99.99,0.000000,,2013-01-27 08:52:00,
2013-01-27 04:00:00,45.0,45.0,-100.00,SSE,161,11.0,-999.0,99,-99.99,,,-99.99,0.000000,,2013-01-27 10:00:00,
2013-01-27 04:52:00,45.0,45.0,-100.00,SSE,161,11.0,-999.0,99,-99.99,,,-99.99,0.000000,,2013-01-27 10:52:00,
2013-01-27 05:00:00,45.0,45.0,-100.00,SSE,154,13.0,-999.0,99,-99.99,,,-99.99,0.000000,,2013-01-27 11:00:00,
2013-01-27 05:52:00,45.0,45.0,-100.00,SSE,154,13.0,-999.0,99,-99.99,,,-99.99,0.000000,,2013-01-27 11:52:00,
2013-01-27 06:00:00,45.0,45.0,-100.00,SSE,161,17.0,-999.0,99,-99.99,,,-99.99,0.000000,,2013-01-27 12:00:00,
2013-01-27 06:52:00,45.0,45.0,-100.00,SSE,161,17.0,-999.0,99,-99.99,,,-99.99,0.000000,,2013-01-27 12:52:00,
2013-01-27 07:00:00,47.0,46.0,-100.00,SSE,165,19.0,-999.0,99,-99.99,,,-99.99,0.020000,,2013-01-27 13:00:00,
2013-01-27 07:52:00,47.0,46.0,-100.00,SSE,165,19.0,-999.0,99,-99.99,,,-99.99,0.020000,,2013-01-27 13:52:00,
2013-01-27 12:00:00,61.0,54.0,-100.00,South,180,20.0,-999.0,79,-99.99,,,-99.99,357.339996,,2013-01-27 18:00:00,
2013-01-27 12:52:00,61.0,54.0,-100.00,South,180,20.0,-999.0,79,-99.99,,,-99.99,357.339996,,2013-01-27 18:52:00,
2013-01-27 14:00:00,68.0,55.0,-100.00,South,181,21.0,-999.0,64,-99.99,,,-99.99,592.469971,,2013-01-27 20:00:00,
2013-01-27 14:52:00,68.0,55.0,-100.00,South,181,21.0,-999.0,64,-99.99,,,-99.99,592.469971,,2013-01-27 20:52:00,
2013-01-27 15:00:00,68.0,55.0,-100.00,South,184,21.0,-999.0,63,-99.99,,,-99.99,533.380005,,2013-01-27 21:00:00,
2013-01-27 15:52:00,68.0,55.0,-100.00,South,184,21.0,-999.0,63,-99.99,,,-99.99,533.380005,,2013-01-27 21:52:00,
2013-01-27 17:00:00,69.0,55.0,-100.00,South,178,18.0,-999.0,61,-99.99,,,-99.99,205.740005,,2013-01-27 23:00:00,
2013-01-27 17:53:00,69.0,55.0,-100.00,South,178,18.0,-999.0,61,-99.99,,,-99.99,205.740005,,2013-01-27 23:53:00,
2013-01-27 19:00:00,62.0,53.0,-100.00,SSE,165,11.0,-999.0,72,-99.99,,,-99.99,0.290000,,2013-01-28 01:00:00,
2013-01-27 19:52:00,62.0,53.0,-100.00,SSE,165,11.0,-999.0,72,-99.99,,,-99.99,0.290000,,2013-01-28 01:52:00,
2013-01-27 20:00:00,60.0,53.0,-100.00,SSE,156,9.0,-999.0,76,-99.99,,,-99.99,0.000000,,2013-01-28 02:00:00,
2013-01-27 20:52:00,60.0,53.0,-100.00,SSE,156,9.0,-999.0,76,-99.99,,,-99.99,0.000000,,2013-01-28 02:52:00,
2013-01-27 21:00:00,57.0,53.0,-100.00,SE,144,7.0,-999.0,85,-99.99,,,-99.99,0.000000,,2013-01-28 03:00:00,
2013-01-27 21:53:00,57.0,53.0,-100.00,SE,144,7.0,-999.0,85,-99.99,,,-99.99,0.000000,,2013-01-28 03:53:00,
2013-01-27 22:00:00,56.0,53.0,-100.00,SSE,166,7.0,-999.0,89,-99.99,,,-99.99,0.000000,,2013-01-28 04:00:00,
2013-01-27 22:52:00,56.0,53.0,-100.00,SSE,166,7.0,-999.0,89,-99.99,,,-99.99,0.000000,,2013-01-28 04:52:00,
2013-01-27 23:00:00,57.0,53.0,-100.00,South,172,9.0,-999.0,85,-99.99,,,-99.99,0.000000,,2013-01-28 05:00:00,
2013-01-27 23:52:00,57.0,53.0,-100.00,South,172,9.0,-999.0,85,-99.99,,,-99.99,0.000000,,2013-01-28 05:52:00,